Location: Paddlesworth
(51.1000°N, 1.1333°E)
Time: 08:21:46
(UTC+00:00)

Cosmos 2228 Rocket - Pass Details

Date: 11 May 2021
Orbit: 618 x 651 km, 82.5° (Epoch: 20 June)

Event Time Altitude Azimuth Distance (km) Brightness Sun altitude
Exits shadow 21:45:32 23° 177° (S) 1,326 4.2 -15.5°
Maximum altitude 21:48:13 72° 98° (E) 667 3.0 -15.7°
Drops below altitude 10° 21:52:42 10° 14° (NNE) 2,030 6.4 -16.0°
Sets 21:54:58 0° 12° (NNE) 2,949 7.3 -16.2°
